Flag for Germany Weather past 2 weeks in Prenzlau, Brandenburg, Germany

Now
50 °F

Light rain. Fog.


Feels Like: 46 °F
Forecast: 40 / 52 °F
Wind: 12 mph from Southwest

Location: Szczecin Airport

Current Time: Dec 19, 2014 at 12:30:15 AM

Latest Report: Dec 19, 2014 at 12:00 AM


Visibility: 2 mi

Pressure: 29.59 "Hg

Humidity: 100%

Dew point: 50 °F

Location of PrenzlauLocation

Historic Weather in Prenzlau — Graph

°F

Prenzlau temperature yesterday

Maximum temperature yesterday: 50 °F (at 5:00 PM)
Minimum temperature yesterday: 37 °F (at 12:00 AM)
Average temperature yesterday: 45 °F

Past Weeks' High & Low Weather Summary

 TemperatureHumidityPressure
High50 °F (Dec 12, 8:30 PM)100% (Dec 5, 5:30 AM)30.36 "Hg (Dec 5, 5:30 AM)
Low28 °F (Dec 14, 6:30 AM)71% (Dec 12, 8:30 PM)29.27 "Hg (Dec 12, 7:30 PM)
Average37 °F93%29.90 "Hg
* Reported Dec 3 11:00 PM — Dec 18 11:30 PM, Prenzlau, Weather by CustomWeather, © 2014

Note: Actual official high and low records may vary slightly from our data, if they occured in-between our weather recording intervals... More about our weather records

Advertising

Prenzlau weather history for previous 24 hours

 ConditionsComfort  
Time TempWeatherWind HumidityBarometerVisibility
11:30 PM
Dec 18
50 °FLight rain. Fog.13 mph100%29.59 "Hg2 mi
11:00 PM50 °FLight rain. Fog.13 mph100%29.59 "Hg2 mi
10:30 PM50 °FLight rain. Partly cloudy.13 mph100%29.59 "Hg4 mi
10:00 PM50 °FLight rain. Partly cloudy.13 mph94%29.59 "Hg5 mi
9:30 PM50 °FLight rain. Partly cloudy.12 mph94%29.59 "Hg5 mi
9:00 PM50 °FLight rain. Partly cloudy.14 mph94%29.59 "Hg4 mi
8:30 PM50 °FLight rain. Partly cloudy.13 mph94%29.59 "Hg4 mi
8:00 PM50 °FLight rain. Partly cloudy.12 mph94%29.62 "Hg4 mi
7:30 PM50 °FPartly cloudy.13 mph94%29.62 "Hg4 mi
7:00 PM50 °FPartly cloudy.12 mph94%29.62 "HgN/A
6:30 PM50 °FPartly cloudy.13 mph94%29.62 "HgN/A
6:00 PM50 °FPassing clouds.12 mph94%29.65 "HgN/A
5:30 PM50 °FPassing clouds.13 mph94%29.65 "HgN/A
5:00 PM50 °FPassing clouds.12 mph94%29.65 "Hg5 mi
4:30 PM48 °FPartly cloudy.10 mph94%29.65 "Hg5 mi
4:00 PM48 °FPassing clouds.12 mph94%29.68 "Hg4 mi
3:30 PM48 °FFog.12 mph94%29.68 "Hg3 mi
3:00 PM48 °FFog.12 mph94%29.68 "Hg3 mi
2:30 PM48 °FFog.12 mph94%29.68 "Hg3 mi
2:00 PM46 °FLight rain. Fog.9 mph100%29.71 "Hg1 mi
1:30 PM46 °FDrizzle. Fog.8 mph100%29.71 "Hg2 mi
1:00 PM46 °FPartly sunny.9 mph100%29.71 "Hg5 mi
12:30 PM46 °FPartly sunny.8 mph93%29.71 "Hg5 mi
12:00 PM46 °FPassing clouds.7 mph93%29.74 "Hg5 mi
11:30 AM46 °FPassing clouds.6 mph93%29.74 "Hg5 mi
11:00 AM45 °FPassing clouds.7 mph93%29.74 "Hg5 mi
10:30 AM45 °FScattered clouds.7 mph100%29.74 "Hg5 mi
10:00 AM45 °FPartly sunny.6 mph93%29.74 "Hg5 mi
9:30 AM43 °FScattered clouds.5 mph100%29.74 "Hg4 mi
9:00 AM43 °FScattered clouds.6 mph100%29.74 "Hg4 mi
8:30 AM43 °FFog.6 mph93%29.74 "Hg3 mi
8:00 AM41 °FFog.5 mph100%29.74 "Hg2 mi
7:30 AM41 °FFog.3 mph100%29.71 "Hg2 mi
7:00 AM43 °FDrizzle. Fog.5 mph93%29.71 "Hg2 mi
6:30 AM41 °FDrizzle. Fog.5 mph100%29.68 "Hg2 mi
6:00 AM41 °FFog.5 mph100%29.68 "Hg2 mi
5:30 AM39 °FDrizzle. Fog.6 mph100%29.68 "Hg1 mi
4:30 AM39 °FDrizzle. Fog.6 mph100%29.68 "Hg1 mi
4:00 AM39 °FDrizzle. Fog.6 mph100%29.65 "Hg2 mi
3:30 AM39 °FFog.5 mph93%29.65 "Hg2 mi
3:00 AM39 °FPartly cloudy.6 mph93%29.65 "Hg4 mi
2:30 AM39 °FPartly cloudy.5 mph93%29.65 "Hg4 mi
2:00 AM37 °FPartly cloudy.5 mph100%29.65 "Hg4 mi
1:30 AM37 °FPartly cloudy.5 mph100%29.65 "Hg5 mi
1:00 AM37 °FPartly cloudy.5 mph93%29.65 "HgN/A
12:30 AM37 °FPartly cloudy.6 mph93%29.65 "HgN/A
12:00 AM37 °FPartly cloudy.5 mph93%29.65 "HgN/A
Weather by CustomWeather, © 2014

See weather overviewHow to use our weather pages